Powrót do katalogu

COSMOS 1312

AktywnyMilitariaPO
NORAD 12879·PAYLOAD·🇷🇺 Russia

Wystrzelony Sep 30, 1981 z Plesetsk Cosmodrome

Loading…

Następne Przeloty (najbliższe 24 godziny)

TLE

ŚwieżeSource: Space-Track

Epoka: Sep 14, 2026, 17:51 UTC

1 12879U 81098A   26257.74440367  .00000037  00000-0  19561-3 0  9995
2 12879  82.6046 171.8398 0005924 273.4054 112.5409 12.42394026580678

Śledź COSMOS 1312 w czasie rzeczywistym z AllMySat

Download on the App Store